Simultaneous Nadir Overpasses (SNOs) Predictions

Prediction of SNOs between GOES-15 and TERRA Satellite Orbit:

Table of predicted SNOs for the next 14.0 days since TLE Epoch: 11/26/2022
Index Date Time (GOES-15) GOES-15 Lat,Lon TERRA Lat,Lon Distance(km) Time Diff (sec)
1 11/26/2022 18:41:45 -0.17,-128.05 -0.40,-126.89 132.08 80
2 11/27/2022 07:02:14 0.16,-128.07 -0.64,-131.87 431.81 80
3 11/29/2022 06:46:32 0.16,-128.01 0.14,-128.07 6.67 80
4 12/01/2022 06:28:10 0.16,-127.96 0.94,-124.28 418.47 80
5 12/01/2022 18:48:31 -0.15,-127.91 0.13,-129.21 148.51 80
6 12/03/2022 18:35:29 -0.15,-127.85 -0.67,-125.42 276.81 80
7 12/04/2022 06:55:58 0.14,-127.87 -0.41,-130.39 286.33 80
8 12/06/2022 06:37:36 0.14,-127.81 0.42,-126.60 138.29 80
9 12/06/2022 18:57:57 -0.13,-127.75 0.66,-131.54 429.89 80
10 12/08/2022 18:42:14 -0.13,-127.68 -0.11,-127.73 5.74 80
